Location: Pedholt
(56.0260°N, 10.2097°E)
Time: 17:18:24
(UTC+00:00)

A-11 Canister half - Pass Details

Date: 02 August 2021
Orbit: 1515 x 1685 km, 47.2° (Epoch: 20 September)

Event Time Altitude Azimuth Distance (km) Brightness Sun altitude
Rises 16:27:58 0° 225° (SW) 4,788 12.3 22.5°
Reaches altitude 10° 16:31:16 10° 218° (SW) 3,828 11.7 22.0°
Maximum altitude 16:40:04 40° 154° (SSE) 2,284 9.9 20.8°
Drops below altitude 10° 16:49:07 10° 90° (E) 3,938 10.6 19.5°
Sets 16:52:33 0° 84° (E) 4,938 11.1 19.1°
